Wetbulb
51.72 51.94 52.15 52.55 52.67 52.94 53.23 53.74 54.35 55.15 55.54 55.86 56.09 56.57 56.79 57.29 56.81 57.44 59.69 59.81 57.06 56.61 57.50 57.56 57.77 56.62 57.67 59.01 56.03 58.00 56.59 56.55 56.43 54.61 53.97 53.72 53.41 54.29 53.58 54.94 54.05 53.44 52.05 51.12 51.90 49.55 47.36 58.45 57.81 53.23 58.53 61.50 61.67 62.18
50.61 50.95 52.10 52.42 52.71 52.80 52.98 53.31 53.61 54.17 55.11 55.40 55.82 56.15 56.48 56.91 56.72 56.63 59.92 61.93 59.47 55.72 56.84 59.01 58.65 59.29 58.66 58.15 57.97 59.72 57.82 57.43 58.42 56.59 56.57 56.50 53.35 54.48 54.07 50.34 55.53 50.52 53.55 51.88 52.46 53.26 58.88 61.11 60.58 62.24 61.48 61.60 61.93 62.16
50.38 50.97 51.77 52.10 52.56 53.04 53.04 53.04 53.08 53.58 54.30 54.60 55.46 56.12 56.47 56.48 56.40 56.00 58.25 59.11 58.45 56.58 57.40 58.03 57.03 60.40 61.00 60.37 61.23 57.27 60.07 58.95 59.72 59.29 59.58 58.03 53.26 56.45 51.36 51.93 53.54 55.29 56.12 53.18 54.23 55.99 58.10 59.94 61.32 62.03 62.26 62.26 62.30 62.34
49.65 50.40 51.10 51.60 51.96 52.21 52.73 53.12 53.12 53.04 53.62 53.99 55.19 55.90 56.12 55.89 55.59 54.88 57.62 60.21 58.35 57.36 53.25 55.92 61.25 59.21 60.92 61.01 60.08 59.90 58.85 60.23 60.67 61.34 59.01 56.45 54.15 57.85 54.47 55.41 54.65 56.46 56.95 55.55 55.92 58.02 59.36 60.78 61.81 62.45 62.01 61.87 61.46 61.89
49.44 49.69 50.29 50.84 51.45 51.47 51.71 52.31 52.77 53.14 53.17 53.35 53.95 54.96 55.33 54.82 54.35 56.02 59.31 60.77 60.31 56.13 53.61 55.43 58.44 59.44 60.59 60.26 59.26 59.19 58.63 58.35 59.25 57.56 56.31 54.74 58.26 56.60 57.35 55.94 53.82 57.59 55.77 54.39 52.86 57.90 59.46 58.95 62.38 63.11 61.91 61.46 62.09 61.49
49.44 49.70 49.91 50.29 50.80 51.03 51.27 51.52 51.93 52.83 53.20 52.90 53.31 53.84 54.01 54.10 54.01 58.09 57.02 59.35 61.00 59.70 55.28 52.85 57.63 58.59 58.41 59.25 58.94 58.28 58.47 58.69 57.89 57.20 56.54 59.29 58.08 56.86 53.81 52.53 57.29 58.51 59.52 59.59 57.73 60.29 60.06 61.55 62.08 62.94 62.51 62.72 62.71 61.90
49.16 49.44 50.02 50.47 50.81 51.16 51.23 51.75 51.93 52.46 52.50 52.91 53.08 53.33 53.51 53.21 55.15 56.55 55.65 57.11 54.77 59.42 55.70 53.49 53.58 58.46 57.52 58.00 57.97 57.64 57.90 58.81 56.97 56.11 55.72 56.22 57.30 55.99 54.45 51.92 57.58 58.96 59.59 60.40 60.57 61.15 59.25 60.07 58.79 62.12 62.44 62.65 60.38 61.53
48.89 49.36 49.46 49.98 50.43 50.73 51.21 51.57 51.90 51.97 52.50 52.52 53.06 52.98 52.99 52.97 53.33 55.85 59.44 54.49 56.06 57.15 56.60 52.88 53.06 55.17 57.55 55.31 54.64 59.56 56.43 56.81 56.38 55.18 58.05 55.27 57.09 56.55 51.94 56.16 57.78 58.78 59.19 59.58 60.80 61.62 60.72 62.32 62.35 61.81 62.04 61.78 60.73 60.40
48.84 49.11 49.54 49.97 50.25 50.72 51.32 51.75 52.30 52.70 53.17 53.33 53.36 53.48 54.93 56.05 56.63 58.43 55.33 54.92 59.73 57.56 53.52 53.73 50.81 51.25 57.44 57.33 58.51 56.92 58.22 53.10 58.53 53.15 53.78 56.14 53.00 51.01 54.09 56.28 56.75 59.16 58.52 58.76 60.73 61.18 60.78 60.44 60.22 60.24 60.32 60.83 60.69 60.48
48.47 49.06 49.35 49.88 50.85 52.01 52.63 52.83 53.09 53.41 53.37 53.18 54.82 56.01 54.31 58.27 55.55 57.04 56.86 55.92 56.29 56.76 56.29 52.30 56.91 53.86 56.77 55.34 54.92 55.84 56.76 54.42 51.93 54.06 57.57 52.62 51.63 57.49 59.22 61.13 61.96 61.05 61.14 61.43 59.66 59.25 59.80 59.34 59.95 60.44 59.29 59.06 58.43 58.37
48.65 49.33 49.79 49.98 51.02 51.77 51.90 53.44 53.36 52.99 53.27 56.25 56.16 54.40 58.51 55.58 58.52 57.15 52.98 51.93 53.43 50.56 53.94 54.65 54.29 54.01 58.36 53.21 53.73 57.65 55.21 55.57 50.59 53.84 53.21 53.29 52.95 57.77 60.80 61.18 62.34 62.36 62.49 62.15 62.11 61.93 61.05 59.75 58.43 58.10 57.86 58.33 58.87 59.29
48.68 49.03 49.68 50.15 50.81 51.09 51.54 52.95 53.44 54.03 54.09 52.58 52.42 54.56 57.56 56.60 54.47 50.56 50.54 52.77 51.08 50.41 53.72 52.39 54.29 54.68 56.34 59.33 55.16 55.73 53.75 55.85 49.14 56.68 53.51 50.96 56.35 60.73 61.10 60.99 61.67 62.38 61.86 61.64 61.40 60.01 59.00 58.50 58.96 58.33 58.02 58.30 59.20 60.00
48.43 48.92 49.61 50.05 51.14 50.57 51.27 52.34 52.94 52.76 52.65 54.53 52.12 53.12 54.45 52.72 43.81 45.80 45.22 48.92 50.40 53.68 55.20 55.49 53.81 54.64 55.45 57.64 57.14 55.17 52.08 51.17 57.13 52.55 51.31 55.47 59.21 60.80 61.64 61.31 61.19 62.49 61.84 61.01 60.05 59.35 59.02 58.04 58.73 58.88 59.02 60.17 61.11 60.74
48.20 49.20 49.51 50.35 49.95 50.38 50.74 51.29 53.19 53.56 53.25 51.08 50.64 40.93 48.42 47.41 49.43 51.26 52.25 54.06 55.24 56.66 56.95 57.59 56.02 53.38 56.80 54.72 56.95 51.46 53.61 53.00 48.14 47.54 49.44 56.61 60.05 61.25 61.78 62.31 61.65 60.78 60.91 59.88 58.90 57.84 57.25 58.12 58.27 59.46 60.10 60.89 60.86 60.73
49.22 49.42 49.77 49.65 49.78 50.01 50.20 50.87 53.11 55.18 52.33 49.79 50.12 43.66 48.31 53.47 54.40 55.81 56.70 55.18 57.09 58.13 57.50 55.62 56.30 56.55 54.50 53.39 53.78 51.66 48.42 46.82 48.60 50.04 55.82 58.43 61.88 62.39 61.78 61.96 61.60 61.23 60.94 59.50 57.74 57.09 57.60 58.05 58.31 58.73 59.78 60.17 60.65 61.67
49.44 49.99 50.27 49.37 49.65 49.73 49.91 53.21 54.95 54.87 51.58 49.60 49.00 48.33 52.42 50.97 52.06 54.13 55.51 55.73 56.08 59.38 57.75 58.20 54.55 52.65 51.22 53.78 50.46 49.04 47.61 46.17 50.52 56.56 58.32 60.76 62.02 62.46 62.83 62.56 62.10 62.07 60.41 58.53 58.39 58.39 58.49 58.60 58.35 58.82 59.78 60.29 61.16 62.05
49.03 48.45 49.37 49.33 49.75 49.93 50.29 52.42 52.73 49.68 48.52 48.40 48.38 52.32 51.27 51.25 51.79 53.69 54.18 52.37 54.16 56.18 54.57 55.47 50.14 49.51 54.83 50.90 48.90 52.69 49.93 54.83 56.95 58.02 59.47 61.85 62.22 63.12 63.29 62.65 62.05 60.00 59.56 59.12 59.40 59.69 59.71 60.08 59.85 58.91 58.61 60.40 61.46 61.90
47.99 50.29 50.01 49.73 50.36 50.71 54.16 53.53 50.17 47.92 45.46 48.91 46.75 50.17 51.52 51.57 51.63 53.27 55.56 54.67 52.42 52.96 54.39 53.13 56.54 51.68 50.81 48.41 50.31 53.65 57.06 58.82 59.76 59.36 60.18 61.45 61.97 62.46 61.99 60.72 60.57 60.04 59.82 60.11 60.20 59.84 59.29 58.58 58.87 58.89 60.12 60.83 58.84 58.57
49.04 49.80 49.71 49.77 51.30 49.74 48.59 50.01 51.25 44.26 47.03 49.29 50.02 50.65 50.89 50.81 52.58 53.26 53.41 54.66 54.66 55.70 56.57 55.43 51.26 51.87 53.06 55.80 55.07 55.68 57.61 58.70 56.49 57.54 59.23 61.10 61.63 61.20 60.66 60.62 60.14 60.39 60.41 59.74 58.85 58.20 59.31 60.32 58.98 58.91 58.79 58.03 56.72 57.37
50.05 49.93 49.46 50.56 51.30 49.22 45.44 48.16 53.53 45.99 45.35 49.02 50.36 49.76 51.04 51.26 53.85 53.56 53.28 52.92 52.42 53.63 53.87 52.00 51.78 53.83 54.88 57.28 58.59 58.52 57.05 57.17 54.82 54.76 57.00 59.25 60.79 58.81 60.24 59.93 59.45 59.64 58.27 58.71 58.81 52.37 59.05 59.19 60.31 59.99 58.65 58.05 57.44 56.87
49.80 50.58 49.97 52.04 51.03 50.44 48.43 47.51 47.21 48.25 48.49 47.04 51.13 51.28 50.15 52.68 51.35 51.39 51.27 53.66 50.09 49.30 50.41 55.23 55.97 57.88 60.32 60.18 59.47 57.38 57.53 57.10 57.16 58.04 57.01 54.85 58.28 60.84 60.86 61.25 59.21 58.24 57.40 57.15 57.37 57.85 55.45 57.44 58.94 58.33 58.25 59.98 58.99 58.80
51.00 47.38 50.32 52.65 48.87 47.84 46.97 49.93 47.42 49.18 48.07 48.81 49.07 51.22 50.09 50.02 51.23 52.66 55.49 50.60 50.20 50.51 51.81 54.18 56.48 57.67 58.66 59.75 59.46 60.28 60.52 60.15 60.32 58.63 50.93 53.35 58.87 59.48 59.09 58.05 57.46 56.53 56.69 57.36 57.58 57.60 58.45 59.04 59.60 59.27 59.23 59.56 56.76 58.83
48.33 48.79 49.87 48.79 45.12 42.88 42.98 51.79 44.23 45.32 42.97 47.93 51.43 48.75 49.90 50.99 52.03 55.50 51.32 52.54 52.72 55.07 54.08 53.74 56.80 58.15 58.19 59.18 60.34 60.78 61.04 60.21 59.38 60.24 59.89 59.37 60.08 59.67 59.20 59.63 58.61 56.74 56.20 57.41 59.26 57.48 58.77 53.58 57.14 57.99 57.97 57.65 57.52 56.12
46.59 46.50 44.02 44.65 44.83 39.94 46.85 44.82 47.89 47.17 48.73 47.50 47.37 46.29 48.64 50.85 52.06 50.97 50.40 54.61 57.25 59.96 59.45 59.35 59.42 58.08 57.21 57.81 55.85 56.53 58.64 59.84 59.58 60.78 60.37 58.84 56.99 57.89 59.69 58.72 58.18 57.27 58.61 59.55 60.30 59.74 58.50 58.37 54.03 57.00 55.87 54.18 53.02 53.00
40.70 40.34 42.18 36.73 45.00 42.96 42.24 43.52 44.07 45.23 44.06 46.06 44.93 45.96 49.40 53.15 48.43 47.63 49.76 54.12 55.08 56.42 57.12 58.45 59.45 58.76 56.99 57.17 57.53 57.57 60.40 59.90 58.93 56.83 57.31 58.78 58.33 58.33 59.03 59.61 58.44 58.30 59.80 59.36 57.75 58.58 57.89 58.09 57.09 57.26 54.18 52.93 51.85 51.23
37.00 42.54 38.89 41.40 43.23 42.43 45.38 41.65 42.58 42.78 43.77 43.48 46.37 48.54 50.91 50.81 46.88 45.45 52.21 54.29 55.41 55.65 56.01 56.57 57.05 58.70 58.07 58.93 58.07 58.29 59.55 61.20 61.22 59.27 59.57 58.93 58.90 58.75 57.57 56.74 55.44 55.85 60.51 60.69 58.81 57.23 57.92 56.90 55.40 53.91 53.20 52.42 47.38 51.48
36.46 39.88 44.45 48.51 46.84 44.89 43.72 46.86 48.05 44.39 42.65 44.06 47.08 47.10 48.67 44.79 45.89 50.50 54.98 55.77 54.94 55.99 58.80 59.03 58.77 58.84 58.82 59.01 61.22 61.94 62.18 62.32 61.71 60.04 60.70 60.21 61.24 61.32 59.59 57.13 55.54 57.93 60.77 60.75 60.46 58.55 58.14 55.68 54.01 54.14 53.33 52.92 52.89 52.68
43.92 45.16 41.26 44.66 45.39 47.23 44.02 44.31 44.72 44.78 45.25 49.10 49.86 46.41 44.96 45.17 45.89 53.21 54.39 55.82 56.33 58.02 58.34 59.08 60.40 60.56 61.23 61.88 61.90 61.88 61.57 60.85 60.25 60.31 60.28 60.48 61.52 61.27 60.82 60.40 60.18 46.24 59.01 59.01 59.83 60.22 59.32 56.58 53.56 54.96 55.20 52.95 52.15 53.48
42.02 46.10 45.67 42.54 43.25 44.55 45.10 45.12 46.47 50.25 51.95 49.68 49.61 48.88 50.20 54.45 54.84 55.23 54.89 55.64 57.04 57.56 57.51 58.66 61.58 61.79 61.67 61.90 62.26 61.78 60.84 60.14 59.00 57.52 57.21 56.78 57.43 58.51 61.15 60.86 60.39 60.50 61.18 59.47 44.93 50.75 56.30 55.79 54.08 56.09 55.39 57.55 55.76 54.27
42.29 46.62 43.66 43.36 42.45 42.58 45.99 48.91 48.73 51.92 53.54 53.81 54.07 53.32 53.71 55.26 57.24 57.20 55.91 54.84 55.30 56.13 58.17 59.71 61.09 60.89 59.29 58.56 58.69 59.66 61.13 61.47 61.04 59.93 58.84 57.91 58.70 60.30 60.62 60.19 59.69 59.46 61.17 60.69 59.10 56.66 48.27 53.83 52.33 54.80 53.89 54.91 55.53 56.94
43.77 43.54 41.75 42.74 43.74 48.02 49.90 51.50 52.44 52.46 52.30 51.66 53.09 50.74 50.45 52.81 53.55 55.05 54.85 57.99 58.76 60.31 59.89 59.43 59.89 60.74 60.23 59.07 58.97 59.39 59.08 61.98 62.72 62.51 62.77 61.68 61.22 60.83 60.98 60.62 60.08 59.34 60.37 60.98 60.34 59.24 57.01 58.18 58.27 58.16 57.79 55.70 54.30 55.65
43.40 40.81 41.12 40.65 44.13 50.76 52.15 50.90 50.53 50.49 50.04 48.85 49.15 52.76 51.44 49.72 48.68 54.05 59.04 59.16 59.31 60.15 54.58 58.85 60.50 60.72 62.97 63.36 63.96 63.87 47.91 62.90 62.68 62.68 61.57 61.26 61.33 61.50 61.77 60.97 60.08 59.05 59.41 59.95 60.02 59.61 59.20 58.70 58.32 58.13 58.13 57.70 57.76 57.20
44.18 44.69 43.47 42.51 44.76 47.01 51.18 50.39 48.24 47.68 48.64 48.70 50.85 52.90 51.01 52.29 51.10 56.03 61.42 61.15 58.44 58.48 59.87 61.17 62.15 63.57 62.87 63.38 64.38 64.50 55.73 64.14 57.12 49.68 48.52 49.30 50.64 54.97 60.70 61.15 60.18 58.63 57.88 58.18 58.51 58.27 57.39 56.77 56.33 57.35 58.55 58.11 57.67 57.52
MSLP
1022.73 1022.30 1022.06 1021.80 1021.54 1021.24 1020.92 1020.53 1020.23 1019.90 1019.61 1019.26 1019.01 1018.68 1018.26 1017.88 1017.52 1016.73 1015.04 1015.19 1014.35 1012.04 1010.13 1009.97 1009.59 1008.82 1008.08 1007.40 1006.15 1007.05 1006.85 1006.11 1005.52 1004.83 1004.36 1004.86 1004.91 1005.89 1005.88 1006.14 1006.49 1006.54 1006.70 1006.54 1007.05 1007.15 1007.05 1007.82 1008.47 1008.30 1008.12 1008.32 1008.46 1008.86
1022.71 1022.34 1021.95 1021.64 1021.40 1021.10 1020.77 1020.43 1020.04 1019.74 1019.48 1019.14 1018.91 1018.61 1018.28 1017.93 1017.61 1017.08 1014.94 1015.05 1015.08 1013.68 1010.73 1010.76 1010.18 1009.88 1009.51 1009.06 1008.14 1007.24 1006.76 1006.26 1005.91 1005.34 1005.72 1005.77 1005.71 1006.36 1005.91 1006.22 1007.48 1007.18 1007.02 1007.12 1007.56 1007.31 1008.67 1009.02 1008.80 1009.09 1008.97 1009.09 1009.36 1009.58
1022.65 1022.29 1021.88 1021.55 1021.23 1020.93 1020.62 1020.32 1019.97 1019.66 1019.37 1019.07 1018.80 1018.52 1018.21 1017.96 1017.73 1017.48 1016.14 1015.51 1014.57 1012.87 1010.58 1009.82 1008.79 1009.23 1009.63 1009.43 1009.12 1008.11 1007.40 1007.67 1007.19 1007.39 1006.31 1006.15 1006.25 1006.34 1006.23 1006.48 1006.86 1007.65 1008.27 1007.91 1008.34 1007.86 1008.68 1009.12 1009.50 1009.53 1009.70 1009.61 1010.19 1010.46
1022.68 1022.25 1021.88 1021.47 1021.10 1020.75 1020.36 1019.99 1019.74 1019.47 1019.12 1018.89 1018.65 1018.42 1018.16 1017.96 1017.77 1017.59 1016.33 1015.38 1014.91 1013.39 1011.09 1008.60 1009.12 1009.09 1009.56 1009.38 1009.21 1008.85 1008.51 1008.48 1008.01 1007.78 1006.86 1006.37 1006.41 1007.24 1006.43 1006.77 1006.88 1007.19 1008.31 1007.90 1007.98 1008.50 1009.04 1009.31 1009.45 1009.64 1010.06 1010.35 1010.65 1010.84
1022.68 1022.27 1021.83 1021.47 1021.09 1020.70 1020.36 1020.00 1019.67 1019.32 1018.95 1018.69 1018.54 1018.31 1018.03 1017.83 1017.62 1017.11 1016.03 1015.37 1015.24 1014.69 1011.75 1009.33 1008.80 1009.01 1008.99 1009.02 1009.10 1008.97 1008.63 1008.21 1007.96 1007.67 1007.17 1006.93 1007.24 1007.87 1007.79 1007.45 1006.70 1007.41 1007.13 1007.53 1007.06 1007.58 1008.39 1008.43 1008.64 1009.67 1010.03 1010.35 1010.72 1010.99
1022.53 1022.07 1021.77 1021.39 1020.98 1020.59 1020.19 1019.80 1019.54 1019.14 1018.74 1018.54 1018.37 1018.14 1017.86 1017.63 1017.35 1016.11 1014.87 1015.26 1015.21 1014.97 1013.12 1009.91 1009.02 1008.88 1008.95 1008.98 1008.88 1008.91 1008.73 1008.75 1008.46 1007.79 1007.54 1007.79 1008.36 1008.47 1007.26 1006.63 1006.60 1006.67 1007.37 1007.40 1007.74 1008.30 1008.43 1008.80 1009.42 1009.38 1009.84 1010.20 1010.75 1011.15
1022.38 1021.97 1021.50 1021.24 1020.84 1020.39 1019.99 1019.61 1019.22 1018.81 1018.52 1018.29 1018.08 1017.88 1017.69 1017.51 1016.99 1015.89 1015.55 1015.57 1015.88 1015.22 1013.06 1010.39 1008.52 1008.94 1009.10 1008.85 1008.79 1008.88 1009.02 1008.77 1008.63 1008.15 1008.15 1007.79 1008.46 1008.86 1007.45 1006.65 1006.77 1007.48 1007.70 1008.12 1008.49 1008.96 1009.03 1009.13 1009.04 1009.68 1010.03 1010.33 1011.06 1011.32
1022.31 1021.85 1021.40 1020.94 1020.62 1020.20 1019.78 1019.34 1018.80 1018.44 1018.18 1017.99 1017.71 1017.45 1017.31 1017.22 1017.12 1015.95 1015.13 1015.65 1016.13 1014.70 1013.21 1010.79 1008.79 1008.60 1008.85 1008.06 1008.15 1008.76 1008.44 1008.73 1008.70 1008.10 1008.42 1008.19 1008.38 1008.48 1007.38 1007.14 1007.22 1007.54 1007.87 1008.34 1008.64 1009.02 1009.07 1009.55 1009.65 1010.23 1010.48 1010.65 1010.93 1010.98
1022.00 1021.51 1021.17 1020.82 1020.32 1019.81 1019.36 1018.92 1018.54 1018.11 1017.70 1017.47 1017.26 1016.97 1016.76 1016.28 1015.10 1014.86 1015.81 1015.81 1015.22 1014.59 1012.28 1010.82 1008.83 1007.66 1008.70 1007.99 1008.11 1008.71 1008.43 1008.14 1008.69 1008.19 1008.03 1008.31 1007.71 1007.58 1007.23 1007.44 1007.46 1007.91 1008.15 1008.06 1008.52 1009.18 1009.51 1009.82 1010.08 1010.44 1010.60 1010.75 1010.83 1010.81
1021.85 1021.28 1020.73 1020.36 1019.97 1019.37 1018.82 1018.38 1017.94 1017.51 1017.12 1016.82 1016.62 1015.93 1014.61 1014.77 1015.63 1015.68 1015.72 1014.57 1014.00 1013.21 1012.52 1010.67 1009.69 1008.37 1008.62 1008.07 1007.91 1008.11 1008.24 1007.66 1007.76 1007.77 1008.39 1008.07 1007.10 1007.28 1007.61 1007.95 1008.06 1008.34 1008.53 1008.70 1008.90 1009.37 1009.79 1009.97 1010.23 1010.45 1010.69 1010.91 1011.07 1011.01
1021.72 1021.25 1020.58 1020.00 1019.54 1019.07 1018.44 1017.80 1017.44 1017.14 1016.38 1016.09 1015.31 1014.76 1014.92 1015.33 1014.79 1013.90 1013.34 1012.89 1012.23 1011.62 1010.90 1010.07 1009.53 1008.48 1008.83 1008.01 1007.49 1007.99 1007.48 1007.66 1007.35 1007.45 1007.77 1006.79 1006.51 1006.81 1007.70 1008.19 1008.64 1008.82 1008.96 1009.04 1009.44 1009.85 1010.16 1010.51 1010.76 1010.83 1010.90 1011.06 1011.16 1011.07
1021.40 1020.90 1020.45 1019.84 1019.31 1018.80 1018.28 1017.71 1017.22 1016.73 1016.54 1016.82 1016.65 1016.00 1015.06 1013.95 1013.29 1012.78 1011.86 1011.68 1011.16 1009.88 1009.94 1009.54 1009.07 1009.14 1008.89 1008.95 1008.04 1008.38 1007.60 1007.84 1007.25 1007.76 1007.45 1006.37 1006.56 1007.68 1008.15 1008.56 1008.92 1009.16 1009.39 1009.75 1010.11 1010.35 1010.58 1010.79 1010.94 1011.03 1011.04 1010.95 1010.84 1010.73
1021.05 1020.65 1020.17 1019.67 1019.21 1018.73 1018.11 1017.66 1017.32 1017.08 1016.86 1016.55 1016.48 1014.91 1013.47 1013.02 1012.37 1011.35 1010.18 1009.74 1009.47 1009.41 1009.28 1009.34 1009.05 1008.73 1009.21 1009.03 1008.22 1007.98 1007.60 1007.39 1007.75 1007.18 1006.38 1006.01 1007.37 1008.04 1008.54 1008.93 1009.33 1009.63 1009.83 1010.09 1010.28 1010.53 1010.77 1010.89 1011.02 1010.96 1010.77 1010.66 1010.45 1010.18
1020.70 1020.13 1019.81 1019.46 1019.13 1018.59 1018.09 1017.61 1017.31 1016.95 1016.76 1015.74 1014.83 1014.18 1012.75 1011.46 1010.38 1009.55 1009.19 1008.84 1009.07 1009.21 1009.02 1009.09 1008.54 1008.42 1008.43 1008.41 1007.84 1007.54 1008.15 1008.19 1007.43 1006.41 1006.01 1006.23 1007.46 1008.12 1008.74 1009.10 1009.34 1009.54 1009.73 1009.97 1010.29 1010.54 1010.68 1010.73 1010.74 1010.73 1010.45 1010.18 1009.94 1009.59
1020.17 1019.67 1019.32 1019.09 1018.76 1018.30 1017.85 1017.40 1017.13 1016.60 1016.19 1015.17 1014.36 1012.95 1011.45 1010.46 1010.12 1009.77 1009.67 1009.69 1009.54 1009.56 1009.25 1009.14 1008.58 1008.38 1008.15 1008.15 1007.91 1007.89 1008.08 1007.35 1006.78 1006.08 1006.19 1006.92 1007.76 1008.36 1008.91 1009.24 1009.35 1009.53 1009.73 1009.97 1010.18 1010.35 1010.47 1010.49 1010.38 1010.13 1009.87 1009.65 1009.44 1009.14
1019.70 1019.09 1019.03 1018.93 1018.47 1018.03 1017.58 1016.86 1016.69 1016.45 1015.75 1015.07 1014.09 1012.41 1011.03 1010.55 1009.59 1009.69 1010.06 1009.83 1010.29 1009.84 1010.02 1009.07 1008.59 1008.45 1007.75 1007.70 1007.44 1007.04 1006.76 1006.56 1006.57 1006.64 1006.91 1007.76 1008.32 1008.70 1009.04 1009.29 1009.46 1009.64 1009.92 1010.04 1010.21 1010.32 1010.31 1010.17 1009.87 1009.66 1009.40 1009.13 1008.79 1008.53
1019.49 1019.04 1019.00 1018.65 1018.21 1017.64 1017.16 1016.95 1016.34 1015.88 1015.11 1014.03 1012.67 1012.06 1011.64 1011.02 1010.29 1010.11 1010.47 1010.72 1011.17 1010.16 1009.70 1008.99 1008.29 1007.88 1007.69 1007.49 1007.40 1007.21 1006.91 1006.72 1006.97 1007.27 1007.68 1008.37 1008.66 1008.96 1009.23 1009.46 1009.67 1009.91 1010.06 1010.11 1010.16 1010.12 1009.99 1009.84 1009.60 1009.34 1008.79 1008.52 1008.41 1008.45
1019.11 1018.58 1018.61 1018.42 1018.05 1017.15 1016.61 1016.30 1015.94 1015.07 1014.10 1012.95 1012.39 1011.78 1011.64 1011.34 1010.81 1010.37 1010.36 1010.82 1010.90 1010.70 1010.25 1009.17 1008.61 1007.97 1007.36 1007.01 1007.40 1007.92 1007.67 1007.80 1007.93 1008.02 1008.35 1008.79 1009.12 1009.33 1009.44 1009.56 1009.78 1009.98 1010.02 1010.05 1010.01 1009.84 1009.62 1009.29 1009.00 1008.47 1008.35 1008.35 1008.65 1008.52
1019.03 1018.63 1018.41 1018.24 1017.92 1017.46 1016.39 1015.80 1015.50 1014.57 1013.27 1012.72 1012.29 1011.97 1011.73 1011.16 1010.85 1010.66 1010.45 1010.44 1010.57 1010.57 1010.37 1009.41 1008.54 1007.57 1007.02 1006.97 1007.22 1007.48 1008.04 1008.26 1008.69 1008.93 1008.95 1009.11 1009.27 1009.38 1009.58 1009.64 1009.80 1009.89 1009.88 1009.84 1009.71 1009.42 1009.14 1009.00 1008.94 1008.75 1008.58 1008.72 1008.61 1008.32
1018.55 1018.25 1018.09 1017.91 1017.72 1016.89 1016.11 1015.37 1015.28 1014.72 1013.35 1012.45 1012.26 1011.58 1011.10 1010.61 1010.40 1010.38 1010.15 1010.01 1009.93 1009.74 1009.57 1008.72 1007.89 1007.55 1007.06 1007.13 1007.62 1008.12 1008.96 1009.41 1009.34 1009.39 1009.03 1008.89 1009.31 1009.64 1009.47 1009.45 1009.30 1009.60 1009.44 1009.29 1009.10 1009.09 1008.72 1008.61 1008.23 1008.17 1008.74 1008.64 1008.35 1008.00
1017.90 1017.72 1017.69 1017.58 1017.21 1016.72 1016.13 1015.12 1014.42 1013.91 1013.41 1012.90 1011.74 1011.52 1010.58 1010.05 1010.05 1009.78 1009.67 1009.59 1009.59 1008.84 1008.36 1007.85 1007.47 1007.02 1007.57 1007.94 1008.44 1008.77 1008.96 1009.36 1009.65 1009.27 1009.23 1009.22 1009.09 1008.84 1008.95 1009.20 1009.43 1009.24 1008.99 1009.00 1008.95 1008.87 1008.79 1008.65 1008.60 1008.94 1008.70 1007.72 1007.87 1007.75
1017.65 1017.99 1017.58 1017.31 1016.83 1016.40 1015.76 1014.91 1014.42 1013.97 1013.59 1012.11 1011.69 1011.07 1010.11 1009.43 1009.11 1009.15 1009.31 1009.28 1008.60 1008.06 1007.79 1007.52 1007.34 1007.46 1007.65 1008.04 1008.25 1008.58 1008.74 1009.09 1009.25 1009.12 1009.29 1009.19 1008.65 1008.56 1008.66 1009.07 1009.13 1009.01 1008.93 1008.88 1009.20 1009.37 1009.05 1008.98 1008.94 1008.78 1008.43 1008.00 1007.94 1007.67
1018.13 1017.96 1017.08 1016.71 1016.27 1015.87 1015.20 1014.69 1014.55 1013.89 1013.04 1011.61 1011.05 1010.38 1009.72 1009.51 1009.66 1009.60 1008.74 1007.84 1007.31 1007.01 1007.10 1007.25 1007.49 1007.73 1007.72 1007.81 1008.04 1008.37 1008.54 1008.64 1008.43 1008.65 1008.70 1008.78 1008.77 1008.95 1008.90 1008.98 1008.96 1008.89 1008.88 1008.81 1009.26 1009.74 1009.18 1009.30 1009.15 1009.00 1008.77 1008.42 1007.96 1007.62
1018.22 1017.30 1016.42 1015.86 1015.63 1015.10 1014.52 1014.20 1013.89 1013.09 1012.15 1011.48 1010.69 1009.72 1009.20 1009.25 1009.81 1009.41 1008.11 1007.37 1007.34 1007.19 1007.22 1007.29 1007.30 1007.21 1007.22 1007.56 1007.42 1007.50 1007.75 1008.03 1007.99 1008.12 1008.42 1008.38 1008.33 1008.71 1008.84 1008.77 1008.70 1008.72 1009.09 1008.98 1009.18 1009.30 1009.55 1009.45 1009.26 1009.21 1009.08 1008.76 1008.40 1008.11
1017.95 1017.11 1016.49 1015.81 1015.28 1014.80 1013.96 1013.34 1013.06 1012.55 1011.69 1011.06 1010.59 1009.66 1008.94 1009.15 1009.11 1008.74 1007.94 1007.72 1007.66 1007.31 1007.27 1007.03 1006.71 1006.57 1006.40 1006.31 1006.38 1006.58 1007.11 1007.26 1007.25 1008.01 1008.46 1008.08 1008.15 1008.31 1008.33 1008.41 1008.48 1008.84 1008.99 1008.94 1009.49 1009.52 1009.42 1009.41 1009.34 1009.26 1009.26 1009.16 1009.03 1008.88
1016.91 1015.85 1015.70 1014.76 1014.08 1013.66 1013.09 1012.62 1012.49 1012.37 1011.91 1011.20 1010.14 1009.91 1009.36 1008.68 1008.46 1008.44 1008.37 1008.57 1008.31 1007.87 1007.71 1007.35 1007.00 1006.32 1006.18 1005.93 1005.67 1005.82 1006.35 1006.88 1007.03 1007.01 1007.60 1007.91 1007.72 1007.74 1008.03 1008.18 1008.27 1008.55 1008.97 1008.95 1009.42 1009.69 1009.32 1009.48 1009.73 1009.86 1009.82 1009.72 1009.65 1009.57
1015.98 1014.93 1014.45 1014.11 1013.88 1013.90 1013.34 1012.38 1011.96 1011.94 1011.42 1010.38 1009.58 1009.21 1008.73 1008.31 1008.21 1008.72 1009.04 1009.15 1009.00 1008.48 1007.91 1007.56 1007.26 1006.62 1005.84 1005.68 1005.70 1005.77 1006.17 1006.67 1006.81 1006.78 1007.31 1007.77 1007.81 1007.99 1008.11 1008.37 1008.82 1009.40 1009.22 1009.22 1009.28 1009.64 1009.37 1009.94 1010.22 1010.19 1010.18 1010.31 1010.41 1010.37
1014.82 1014.09 1013.60 1013.61 1013.38 1012.96 1012.41 1011.63 1010.97 1010.28 1010.06 1009.63 1009.12 1008.54 1008.43 1008.80 1009.26 1009.35 1009.56 1009.27 1009.15 1008.51 1007.91 1007.39 1006.86 1006.58 1005.98 1005.76 1005.80 1006.16 1006.44 1006.76 1007.10 1007.26 1007.59 1007.90 1008.10 1008.27 1008.63 1009.03 1009.70 1010.25 1010.00 1010.19 1009.85 1009.68 1009.60 1010.12 1010.54 1010.34 1010.35 1010.56 1010.82 1011.07
1014.51 1013.64 1013.53 1013.09 1012.89 1012.41 1011.53 1010.62 1009.63 1008.74 1008.81 1009.00 1008.40 1008.17 1008.25 1008.69 1009.04 1009.37 1009.40 1009.04 1008.89 1008.49 1007.77 1006.86 1006.33 1006.30 1005.99 1005.87 1005.84 1005.94 1006.25 1006.44 1006.66 1006.85 1006.99 1007.05 1007.59 1008.14 1008.56 1008.87 1009.06 1009.17 1009.61 1010.36 1011.02 1010.79 1010.55 1010.45 1010.75 1010.58 1010.64 1010.37 1010.86 1011.30
1013.72 1013.31 1012.99 1012.48 1011.85 1010.82 1009.85 1009.45 1008.85 1008.38 1008.12 1008.04 1008.10 1008.15 1008.20 1008.51 1008.97 1009.18 1009.10 1008.78 1008.30 1007.97 1007.34 1006.74 1006.59 1005.95 1005.38 1005.28 1005.52 1005.74 1005.95 1005.93 1005.89 1005.78 1005.98 1006.25 1006.65 1007.51 1008.24 1008.61 1008.90 1009.08 1009.41 1009.75 1010.49 1011.18 1011.27 1011.12 1011.04 1011.06 1011.04 1010.94 1010.91 1010.70
1013.94 1013.72 1013.16 1012.13 1010.76 1009.56 1008.94 1008.67 1008.42 1008.32 1008.23 1008.06 1007.98 1008.03 1008.01 1008.44 1009.23 1008.57 1008.55 1008.13 1007.90 1007.31 1006.66 1006.12 1005.91 1005.80 1005.21 1004.76 1004.83 1005.14 1005.18 1005.53 1005.86 1006.18 1006.59 1006.36 1006.82 1007.57 1008.10 1008.60 1008.92 1009.05 1009.31 1009.47 1009.75 1010.46 1011.08 1010.78 1010.60 1010.50 1010.42 1010.88 1011.08 1010.71
1013.25 1012.86 1012.32 1011.46 1010.07 1008.76 1008.36 1008.11 1007.98 1007.86 1007.71 1007.73 1007.63 1007.39 1007.95 1008.50 1008.75 1008.68 1008.49 1007.90 1007.53 1006.84 1006.69 1006.01 1005.40 1005.49 1005.56 1005.14 1004.89 1005.12 1005.45 1005.28 1005.63 1006.16 1006.81 1006.75 1007.25 1007.82 1008.36 1008.65 1008.90 1009.04 1009.24 1009.40 1009.57 1009.90 1010.11 1010.14 1010.29 1010.41 1010.57 1010.69 1010.84 1011.28
1011.91 1011.74 1011.62 1011.19 1010.03 1008.65 1007.76 1007.89 1007.93 1007.98 1007.91 1007.80 1007.30 1007.04 1007.38 1007.24 1007.76 1008.16 1008.12 1008.06 1008.17 1007.67 1007.13 1006.74 1006.42 1006.13 1005.99 1005.83 1005.64 1005.53 1006.12 1005.65 1006.28 1006.45 1006.92 1007.16 1007.58 1008.03 1008.29 1008.62 1008.96 1009.22 1009.40 1009.50 1009.72 1009.99 1010.16 1010.31 1010.41 1010.55 1010.60 1010.82 1011.05 1011.38
Wind_Speed
11 10 10 10 10 10 11 11 11 10 11 10 12 13 13 12 12 8 3 4 6 4 6 2 3 5 3 3 3 6 6 6 6 9 7 5 5 6 5 1 6 8 8 8 10 13 17 6 5 11 4 3 5 5
13 12 11 10 10 9 10 11 11 12 10 10 11 11 11 10 10 11 3 1 4 6 7 4 8 10 7 6 7 2 6 3 6 3 2 2 4 5 5 8 5 7 7 7 5 3 3 2 6 3 3 5 4 4
11 12 11 10 9 11 10 9 11 11 10 10 11 11 10 9 9 8 5 5 4 5 6 5 5 6 8 10 8 6 3 3 2 5 1 2 3 3 5 7 5 5 3 6 4 9 5 4 4 5 4 4 4 2
13 14 13 12 11 11 12 11 10 11 9 10 11 11 9 9 9 8 4 4 4 5 5 4 3 2 0 6 9 9 4 2 2 2 2 3 4 3 5 4 9 2 10 9 9 4 4 8 10 8 7 5 5 3
13 13 13 13 12 11 11 11 12 10 9 9 10 11 10 10 10 8 5 3 2 6 6 5 7 3 3 6 8 9 8 4 3 4 5 6 2 4 3 4 9 8 9 9 8 1 7 8 7 12 10 9 7 6
13 13 12 13 13 13 12 12 13 10 9 10 10 10 9 10 9 6 5 4 2 3 5 4 3 1 2 5 9 9 6 3 4 3 5 2 2 5 5 10 12 7 6 7 6 4 8 2 2 6 12 10 7 7
14 14 13 13 14 13 12 13 12 11 10 10 11 10 9 9 6 5 7 5 1 4 4 4 3 5 2 7 4 5 6 3 4 5 5 6 5 5 9 11 6 7 8 5 3 5 5 7 7 3 4 5 5 8
15 15 15 14 15 15 14 14 14 14 13 12 12 12 11 9 8 6 2 9 7 5 4 4 1 5 6 5 5 2 5 5 5 5 1 7 5 5 8 10 9 9 6 8 8 7 5 2 2 4 4 6 7 10
14 15 16 16 16 16 15 15 13 13 13 12 12 11 4 6 4 4 7 9 5 5 4 3 4 4 5 3 2 5 4 5 3 6 7 3 7 8 6 8 7 7 7 4 8 7 5 5 3 4 5 6 10 11
15 15 17 17 17 15 14 15 14 14 14 11 4 6 4 3 2 7 6 5 6 5 4 5 1 3 4 6 6 5 4 4 5 4 4 6 9 10 7 4 2 4 4 4 7 7 6 6 5 4 7 8 10 12
15 15 17 17 16 15 17 16 10 11 8 4 3 1 4 2 5 4 4 4 4 5 5 4 4 3 3 7 6 3 3 4 4 6 5 5 5 6 6 7 6 5 6 6 5 5 3 3 5 8 9 11 12 14
14 15 17 16 16 16 17 15 8 4 2 4 4 3 3 5 4 5 5 4 6 3 5 5 4 5 3 2 4 4 4 4 4 6 5 4 5 6 6 8 9 9 8 7 4 2 3 5 8 10 11 13 13 14
14 16 16 15 12 17 16 14 7 6 8 2 3 4 3 3 2 6 8 5 4 5 5 6 6 5 4 5 3 5 6 4 3 5 5 1 7 7 7 8 8 7 6 4 1 2 5 8 9 11 12 12 14 13
15 14 15 10 14 14 15 13 9 5 3 3 3 2 6 5 5 4 3 1 5 2 3 2 4 5 3 5 2 4 3 3 4 5 5 3 6 9 8 7 7 7 5 3 2 4 7 8 9 10 11 12 13 14
15 16 12 3 15 17 16 13 7 3 3 3 2 4 6 3 2 2 2 3 1 3 4 4 4 3 5 4 3 3 5 5 4 3 1 6 7 9 8 7 6 5 5 4 4 6 7 9 10 11 12 12 13 13
18 12 2 15 18 17 16 8 2 2 2 3 4 5 4 5 4 3 2 2 4 2 4 5 3 5 5 2 5 7 5 4 3 1 5 6 5 6 5 5 5 4 4 5 6 8 9 11 12 14 15 14 13 12
14 3 11 16 16 18 8 3 2 4 3 4 4 3 5 5 5 2 2 2 4 2 3 3 5 4 3 3 4 3 1 2 3 5 4 4 4 4 4 4 3 4 5 7 8 10 12 12 13 14 15 12 11 12
9 8 10 13 12 6 1 2 3 4 5 5 4 0 2 4 5 3 2 2 3 3 4 2 2 3 3 2 4 2 1 3 2 3 3 5 4 3 3 3 3 4 6 8 10 12 12 12 12 9 10 10 9 11
12 13 14 12 7 4 2 3 3 4 3 3 4 4 4 5 5 6 5 4 3 3 3 3 4 2 3 2 4 6 3 2 4 2 1 3 3 3 4 4 4 6 7 8 9 9 9 9 8 8 7 7 8 9
15 11 5 7 5 2 3 3 1 3 4 3 3 5 4 5 2 4 5 5 5 4 5 4 4 3 2 4 4 4 5 3 2 3 4 2 2 4 4 4 4 5 6 7 8 6 6 7 7 6 7 8 9 9
8 3 5 2 2 3 3 3 4 2 4 4 4 4 5 4 6 6 6 5 6 4 6 5 6 4 3 4 4 3 4 5 6 3 2 1 4 1 0 1 3 5 6 6 7 8 5 6 7 7 8 8 7 8
1 3 2 2 3 4 4 3 4 4 4 4 5 4 5 5 5 4 2 6 5 8 8 9 7 6 5 6 4 5 4 5 5 2 3 3 2 1 1 3 4 6 6 6 6 7 7 7 7 7 8 9 8 8
4 4 3 3 2 2 3 1 3 3 3 3 2 4 3 2 1 2 5 6 5 4 7 8 9 10 10 9 5 5 4 3 3 3 3 3 2 1 0 2 3 6 7 6 4 4 7 8 7 6 7 7 7 6
1 4 4 3 4 3 2 4 3 4 3 3 3 4 3 4 2 4 4 2 2 2 3 5 6 7 8 9 9 8 7 6 5 4 4 3 3 3 1 3 4 5 5 5 5 6 6 6 6 4 6 7 7 6
3 3 3 4 3 3 4 5 6 4 4 3 4 4 2 3 2 3 2 2 3 4 5 4 4 6 7 6 7 8 9 8 5 5 5 5 3 4 2 2 3 5 5 5 6 7 5 2 4 6 6 7 8 8
4 5 5 3 3 4 2 3 2 1 3 3 3 2 4 3 4 3 2 3 3 6 5 6 6 2 4 4 5 7 8 7 7 6 7 5 3 2 3 4 6 7 5 5 5 6 7 7 7 8 7 9 10 9
3 4 5 3 2 2 4 5 4 2 4 4 3 2 3 4 2 3 3 3 3 7 7 6 5 4 2 5 3 4 7 7 6 3 6 5 2 2 4 6 7 6 6 6 5 4 7 8 5 6 7 8 8 9
4 3 5 4 3 3 6 4 5 5 4 4 3 4 2 2 1 2 1 4 5 9 7 7 4 4 5 3 5 7 8 8 7 7 6 5 3 4 5 5 6 2 7 7 6 4 6 8 5 4 10 8 6 8
5 4 4 7 6 5 6 6 5 3 4 2 3 2 2 2 3 2 3 5 6 7 7 6 1 3 5 5 7 8 8 8 9 9 9 5 6 5 4 4 4 3 6 8 10 9 8 9 5 8 7 10 9 7
4 5 5 5 6 7 5 7 5 5 4 4 4 5 4 1 2 1 4 5 5 5 6 4 2 5 7 9 8 7 7 7 6 4 6 5 5 8 7 5 4 5 5 6 8 5 3 4 5 6 7 7 6 5
2 2 3 6 6 8 8 8 8 8 9 10 9 8 7 2 3 4 4 5 7 6 5 4 5 6 6 8 8 8 7 6 5 3 1 4 8 9 8 6 5 5 5 5 6 8 5 4 7 5 7 9 6 7
5 8 5 5 5 5 5 7 7 8 3 2 5 4 3 2 3 4 2 4 3 2 1 4 4 5 2 4 3 3 3 3 5 7 9 6 9 10 9 7 6 6 7 7 7 8 7 8 7 7 8 8 9 10
4 5 6 4 4 5 3 3 3 3 3 3 4 4 6 5 3 1 3 5 1 4 4 3 3 3 2 2 1 1 2 2 7 7 7 8 12 11 9 7 6 7 8 8 8 9 9 10 9 10 10 10 10 12
Wind_Direction
351 350 344 340 337 338 332 332 327 328 328 333 334 338 343 349 353 337 344 354 323 298 290 257 298 294 290 268 245 107 189 213 190 212 218 169 217 184 184 130 194 208 225 233 242 275 265 118 150 235 13 110 146 157
347 342 342 344 337 328 330 332 330 320 323 331 330 332 339 344 350 329 281 26 317 261 325 316 282 277 278 326 318 165 1 52 29 202 240 133 166 177 220 217 196 237 239 293 229 3 78 201 281 334 280 167 165 177
345 337 337 340 336 337 328 320 330 324 323 328 329 330 338 348 349 346 313 328 253 266 254 235 216 151 233 242 275 295 115 22 129 356 64 68 156 222 203 240 225 201 230 235 201 207 211 202 204 203 207 165 159 167
348 347 342 340 339 338 340 344 327 322 320 325 328 331 341 344 339 334 303 344 276 292 281 109 160 212 267 231 235 242 349 195 54 273 251 227 244 219 250 325 227 18 158 218 233 214 204 228 228 209 203 198 212 192
343 340 341 339 337 333 334 338 335 324 329 328 328 327 331 335 325 290 249 251 284 303 328 318 308 107 254 217 210 205 221 235 233 210 225 233 24 216 219 273 232 185 215 213 248 323 223 283 217 208 215 213 220 229
343 339 336 332 331 328 327 324 320 320 329 325 316 318 326 326 326 270 208 173 214 290 272 272 60 176 54 169 180 186 207 202 249 252 233 211 23 247 231 241 240 210 245 268 273 254 240 164 225 210 218 223 229 236
344 339 337 332 328 325 320 314 314 319 314 313 313 309 306 310 291 281 358 30 42 298 262 271 190 117 149 150 142 151 186 197 258 227 232 247 192 234 253 252 204 209 227 194 194 166 201 221 249 196 241 221 194 258
336 337 337 335 333 328 324 319 316 314 314 305 298 299 294 277 266 249 145 220 237 272 260 275 208 194 189 189 157 191 170 195 187 247 224 235 159 240 252 255 263 251 262 227 206 215 288 33 213 214 231 241 253 266
338 340 343 333 326 321 318 312 306 301 296 292 290 293 250 218 219 80 112 137 214 295 294 247 267 133 173 171 89 172 237 206 100 231 226 222 217 220 235 249 232 201 211 217 194 205 198 210 188 225 244 265 277 288
337 337 339 334 328 324 320 310 306 306 300 295 253 216 175 93 41 159 179 200 197 188 225 261 4 213 228 177 183 156 203 223 212 178 116 229 246 227 226 229 229 174 189 174 174 180 193 210 224 276 302 308 299 297
334 334 336 337 333 333 332 331 305 308 279 228 226 47 38 126 222 214 198 227 159 219 200 239 249 251 151 215 187 237 178 175 240 133 235 197 237 183 196 210 205 195 175 151 94 88 62 11 319 309 306 306 298 292
333 330 332 334 332 335 336 334 321 276 349 355 337 284 248 220 205 226 199 159 223 236 166 222 179 215 138 267 242 176 224 196 251 140 227 234 112 124 147 135 134 138 142 136 118 71 358 332 318 309 300 295 294 292
330 325 328 331 334 336 340 340 343 323 278 190 235 225 221 169 209 216 187 186 205 182 182 187 174 199 169 227 225 204 203 214 137 211 230 353 109 144 142 140 141 145 150 146 151 324 322 310 307 301 299 297 296 292
330 318 322 327 339 339 342 338 328 298 272 248 209 231 229 190 227 209 230 73 71 251 160 226 160 206 170 191 213 214 101 168 233 240 224 122 146 152 156 158 164 175 187 203 277 295 301 302 309 306 296 296 297 294
322 319 318 322 346 337 336 330 306 261 287 263 248 246 226 260 268 261 307 257 147 296 230 203 218 205 181 196 214 134 178 215 222 260 73 102 139 148 162 176 192 196 218 261 295 302 304 303 302 299 307 306 298 291
326 314 352 330 333 328 327 305 214 269 252 256 239 255 234 257 213 151 358 135 6 321 285 257 190 195 188 231 194 205 195 181 173 180 105 126 136 156 175 192 211 236 255 268 287 293 294 292 297 302 304 301 298 289
316 340 334 323 321 308 302 275 248 225 268 248 225 250 280 301 307 347 111 43 327 280 257 241 220 180 139 205 186 255 185 69 102 124 105 81 130 160 170 191 217 247 264 281 291 292 291 295 297 296 297 299 309 307
314 319 331 330 323 306 206 234 257 266 243 237 254 54 253 277 290 272 161 150 41 328 304 324 301 220 200 193 119 109 302 74 40 77 94 115 130 147 186 217 253 270 276 288 294 298 294 291 296 295 312 318 309 300
314 309 314 310 305 304 295 214 237 276 277 328 273 249 259 272 266 277 282 267 251 240 262 258 253 241 217 177 188 173 114 29 66 88 140 162 206 194 228 247 263 268 288 300 305 307 308 309 300 297 300 311 301 300
294 294 316 316 227 260 250 210 236 254 271 31 268 254 250 265 277 258 250 239 227 224 216 227 211 190 320 83 82 68 87 76 62 341 221 162 180 201 220 283 310 327 288 301 304 294 297 304 300 335 329 303 301 305
278 41 327 224 248 248 289 285 240 258 334 297 315 287 278 232 238 231 233 214 218 224 227 223 231 205 81 113 128 138 137 134 215 252 355 177 212 74 35 343 284 309 313 326 329 328 290 308 332 323 299 303 319 309
345 313 278 208 261 199 260 211 290 327 249 256 241 228 259 248 242 212 199 211 233 230 231 244 238 258 222 211 197 208 144 176 211 176 213 221 276 312 37 353 334 333 332 331 348 329 317 315 328 311 308 324 330 312
282 217 241 239 259 186 260 225 250 232 261 263 249 247 220 247 162 233 240 219 231 222 233 233 242 256 256 266 248 232 204 210 245 242 186 179 142 108 36 352 343 335 331 342 23 317 316 342 322 335 334 325 320 330
219 265 259 250 203 260 225 209 228 270 255 248 250 260 223 161 175 247 246 183 117 189 226 243 238 241 229 232 238 230 218 215 224 194 172 170 173 129 8 348 358 2 1 332 340 352 343 337 330 3 353 354 350 3
254 242 200 256 232 245 234 214 204 224 254 204 246 232 223 178 230 297 339 103 9 28 3 326 266 231 228 215 211 203 182 203 200 159 200 212 129 165 153 15 22 34 358 353 7 345 344 354 10 26 25 16 11 31
254 188 193 231 241 248 292 285 48 341 277 256 266 341 278 237 215 218 48 27 356 9 354 345 324 262 215 235 188 182 166 177 181 177 160 185 224 31 38 7 8 35 13 353 42 0 14 46 34 39 33 35 30 43
245 238 208 245 232 222 258 243 246 237 249 241 246 249 253 244 123 68 12 5 329 331 333 326 308 275 257 164 136 132 141 155 167 123 140 174 148 71 40 25 29 18 15 9 43 15 41 65 60 77 72 53 42 60
278 275 236 166 225 269 273 272 248 221 213 228 239 230 219 18 33 339 316 274 302 309 325 314 286 251 238 167 150 145 144 135 132 130 133 143 152 117 108 92 80 25 54 28 15 27 62 87 66 57 88 80 70 75
242 229 239 246 231 231 229 233 248 248 149 198 280 315 22 135 168 141 290 294 309 313 308 304 29 196 187 162 155 151 156 163 169 175 189 172 170 166 159 143 132 95 92 88 46 42 45 89 111 106 97 110 119 121
241 212 228 238 222 226 225 212 250 265 273 269 288 273 272 282 108 228 295 305 293 297 292 293 292 219 168 158 155 166 187 198 218 218 193 195 165 136 158 142 114 93 103 111 117 103 60 83 74 79 95 97 111 108
274 194 244 250 259 249 255 259 260 264 262 261 263 266 272 335 7 304 285 294 286 279 277 237 182 199 200 192 175 183 188 191 206 201 229 114 125 148 146 134 120 103 100 101 106 106 117 147 137 137 101 75 49 65
195 207 211 224 260 271 271 254 245 251 309 290 259 235 142 136 225 174 347 325 321 192 193 260 163 131 251 304 331 18 21 56 147 165 174 159 146 147 145 142 132 114 115 114 120 127 125 118 121 120 121 128 128 121
228 205 205 256 250 240 214 202 209 231 188 215 217 163 185 180 129 139 177 54 28 332 12 6 351 356 14 283 294 290 248 189 56 125 134 133 143 148 150 147 133 126 130 119 117 118 112 104 96 93 100 109 107 115